Location: Peebles
(55.6412°N, 3.1714°W)
Time: 05:45:33
(UTC+01:00)

CZ-4B R/B - Visible Passes

Search period start: 26 June 2022 00:00
Search period end: 06 July 2022 00:00
Orbit: 362 x 416 km, 97.6° (Epoch: 25 June)

Date Brightness Start Highest point End Pass type
(mag) Time Alt. Az. Time Alt. Az. Time Alt. Az.
27 Jun 3.8 23:01:02 10° NNW 23:03:20 21° WNW 23:05:37 10° WSW visible
30 Jun 4.2 23:23:55 10° NNW 23:25:27 14° WNW 23:26:59 10° W visible
02 Jul 3.9 23:07:35 10° NNW 23:09:44 19° WNW 23:11:52 10° WSW visible
05 Jul 4.3 23:29:55 10° NNW 23:31:14 12° WNW 23:32:32 10° W visible
